STARLINK-36821, 67880

Orbit data source: Space-Track

STARLINK-36821, 67880 is a payload satellite owned by SpaceX/Seattle (US) in SSO that was launched on Sat, 21 Feb 2026 UTC via an FALCON 9 launch vehicle from the Air Force Western Test Range (AFWTR). Payload-class satellites include a variety of spacecraft equipped with specific instruments for various scientific and technological missions. These include communications satellites like Starlink; space stations such as the ISS; scientific satellites like the Hubble; Earth observation satellites from companies like Planet Labs, Umbra, and HawkEye 360; GPS; miniature CubeSats for education and research; and military/defense satellites.

Loading next visibility...
Identifier
67880, 2026-035B
Orbit
SSO
Country
Flag of USUS
Related business
Manufacturer
SpaceX/Seattle
Mission
Operational Commercial Communications
Bus & Motor
STARLINK V2MO, Unknown motor
Mass
575 kg wet, ~530 kg dry
Launch date (UTC)
2026-02-21 (4 months ago)
Launch vehicle
FALCON 9
Launch site
Air Force Western Test Range (AFWTR)
Object type
Payload
Rocket body
Debris
Shape & HBR
Box + 2 Pan, 17.7 m
Radar Cross Section
36.964 m², Large (>1 m²)

Expand to show TLE details & history
Last TLE update: 11 hours ago

TLE from 11 hours ago
0 STARLINK-36821
1 67880U 26035B   26171.39464833  .00012216  00000-0  38006-3 0  9994
2 67880  97.2838 104.4825 0002261  72.5499 287.5991 15.33446925 19721
Epoch: 2026-06-20T09:28Z
TLE epoch observation values (Epoch: 2026-06-20T09:28:17.615Z)
Latitude
-0.00001°
Longitude
53.79921°
Altitude
468.182 km
Speed
7.632 km/s
True Right ascension
06h 57m 55s
True Declination
0° 00' 00"
Sunlit
Object was in daylight at epoch
Visualization orbit readout
Latitude
Unknown
Longitude
Unknown
Altitude
Unknown
Speed
Unknown
Apparent Right ascension
Unknown
Apparent Declination
Unknown
Sunlit
N/A
Visualization observer readout
Local Sidereal Time
07:16:24
Azimuth
Unknown
Elevation
Unknown
Doppler factor
Unknown
Orbital elements
Apogee altitude
464.027 km
Perigee altitude
460.933 km
Semi-major axis
6,840.617 km
Eccentricity
0.00023
Inclination
97.2838°
RAAN
104.4825°
Arg. of periapsis
72.5499°
True anomaly
287.5744°
Mean anomaly
287.5991°
Eccentric anomaly
287.58675°
Mean motion
3.83619 °/min
Orbital period
93.84 mins
BSTAR
0.00038006
Loading maneuver chart data...
Computing Atmospheric mass density...
Loading historical data...
Loading historical data...
Loading historical data...
Loading historical data...
Loading historical data...
Loading historical data...
Loading historical data...

Documentation

Showing up to 5 results
|